Location: ?????????
(54.7630°N, 39.4991°E)
Time: 09:19:42
(UTC+00:00)

ATLAS 3B R/B - Pass Details

Date: 14 April 2026
Orbit: 937 x 1257 km, 63.8° (Epoch: 18 May)

Event Time Altitude Azimuth Distance (km) Brightness Sun altitude
Rises 19:50:00 0° 286° (WNW) 4,194 6.4 -22.7°
Reaches altitude 10° 19:52:59 10° 293° (WNW) 3,240 5.8 -22.9°
Maximum altitude 20:00:29 44° 5° (N) 1,676 4.1 -23.3°
Drops below altitude 10° 20:07:51 10° 76° (ENE) 3,184 5.1 -23.7°
Sets 20:10:45 0° 83° (E) 4,116 5.6 -23.9°
